ABB856 EBLG-VHHH

Flight info

Callsign ABB856
Flight time N/A
Altitude 23000
Route LNO DCT ARCKY L607 ROPUV/N0483F310 L607 UBIDU L984 RUDUS DCT BOMBI DCT DETEV DCT DINKU L603 OLETU DCT GOMIG DCT GOLVA DCT IDABO DCT ETIDA/N0481F330 Q7 IVGOT DCT UDROS UM859 BAMUP DCT OSDIP DCT KARDE DCT ZERGE UN644 ROLIN N644 LAGAS M747 SUBUT T916 LEYLA N161 GASBI/K0874F330 N161 ABDUN/K0874F350 N161 SARIN/K0870S1070 A368 FKG W192 ESDEX W191 RUSAT/K0882S1130 W191 DNC W565 BIGUX B330 KWE W181 DUDIT A599 POU R473 SIERA
Aircraft B77L/H-SDE1E2E3FGHIJ2J3J4J5M1RWXY/LB1D1

Departure

Time 2026-05-01 15:31
Airport Liège Airport (EBLG)

Arrival

Time N/A
Airport Hong Kong International Airport (VHHH)
Time Latitude Longitude Altitude Speed Heading
2026-05-01 15:11 50.63738 5.43326 643 ft 0 kts 315°
2026-05-01 15:18 50.63728 5.43341 648 ft 4 kts 315°
2026-05-01 15:19 50.63669 5.43409 649 ft 4 kts
2026-05-01 15:19 50.63625 5.43367 647 ft 4 kts 45°
2026-05-01 15:19 50.63621 5.43360 646 ft 0 kts 45°
2026-05-01 15:21 50.63621 5.43362 647 ft 1 kts 45°
2026-05-01 15:22 50.63623 5.43506 649 ft 11 kts 136°
2026-05-01 15:22 50.63553 5.43615 643 ft 20 kts 135°
2026-05-01 15:22 50.63468 5.43748 643 ft 20 kts 134°
2026-05-01 15:23 50.63357 5.43879 649 ft 20 kts 170°
2026-05-01 15:23 50.63232 5.43832 645 ft 16 kts 179°
2026-05-01 15:23 50.63198 5.43921 651 ft 8 kts 60°
2026-05-01 15:23 50.63242 5.43988 648 ft 11 kts 44°
2026-05-01 15:24 50.63307 5.44089 648 ft 19 kts 45°
2026-05-01 15:24 50.63409 5.44250 640 ft 27 kts 45°
2026-05-01 15:24 50.63550 5.44473 633 ft 31 kts 45°
2026-05-01 15:24 50.63683 5.44684 631 ft 27 kts 45°
2026-05-01 15:25 50.63739 5.44774 629 ft 27 kts 45°
2026-05-01 15:25 50.63745 5.44781 629 ft 27 kts 45°
2026-05-01 15:26 50.63755 5.44797 632 ft 27 kts 45°
2026-05-01 15:26 50.63887 5.45013 633 ft 27 kts 48°
2026-05-01 15:26 50.64024 5.45224 631 ft 27 kts 47°
2026-05-01 15:26 50.64158 5.45437 631 ft 27 kts 44°
2026-05-01 15:27 50.64293 5.45651 628 ft 27 kts 45°
2026-05-01 15:27 50.64427 5.45863 634 ft 27 kts 45°
2026-05-01 15:27 50.64562 5.46076 631 ft 27 kts 45°
2026-05-01 15:28 50.64768 5.46101 627 ft 14 kts 310°
2026-05-01 15:28 50.64761 5.46031 624 ft 6 kts 234°
2026-05-01 15:28 50.64748 5.46009 621 ft 0 kts 225°
2026-05-01 15:29 50.64577 5.45736 629 ft 72 kts 225°
2026-05-01 15:30 50.63212 5.43580 719 ft 188 kts 225°
2026-05-01 15:31 50.59522 5.37685 3200 ft 191 kts 221°
2026-05-01 15:31 50.58893 5.33859 3761 ft 208 kts 296°
2026-05-01 15:32 50.60470 5.29715 4225 ft 235 kts 297°
2026-05-01 15:32 50.62123 5.25139 5276 ft 243 kts 297°
2026-05-01 15:33 50.64607 5.18267 6917 ft 250 kts 297°
2026-05-01 15:34 50.67620 5.11640 8418 ft 258 kts 333°